Theta_e
341 344 344 344 344 345 345 346 347 346 346 346 345 344 343 344 344 343 344 346 346 346 346 345 345 345 346 344 345 344 345 344 344 343 343 343 343 344 344 343 343 344 343 343 344 344 344 343 342 342 343 343 341 341 340 339 340 340 339 339 339 339 339 338 338 337 335 335 335 335 332 331 333 333 333 333 334 333 332 332 331 331 332 333 333
339 341 344 345 344 344 346 345 345 347 346 346 344 344 343 344 344 344 345 345 345 345 345 345 345 345 344 344 344 345 344 344 343 343 343 343 343 343 343 342 343 344 343 343 343 343 343 342 343 342 343 343 342 340 339 339 338 338 337 337 337 337 337 337 337 336 336 335 334 333 331 330 330 331 332 334 333 332 331 330 330 331 330 330 330
344 341 343 344 340 340 344 344 345 345 346 345 343 343 343 344 344 345 345 345 345 345 345 345 345 344 344 344 345 344 343 343 343 342 343 343 343 342 343 342 343 344 344 343 343 343 344 343 342 343 343 342 341 339 338 338 337 336 335 335 335 335 336 335 334 334 334 334 333 330 329 328 327 328 330 333 332 333 331 327 327 328 329 329 330
341 343 343 344 342 341 342 344 345 345 345 343 343 343 343 344 344 345 345 345 345 345 345 344 345 344 344 344 343 344 343 344 343 342 342 342 342 342 343 344 343 344 343 343 343 342 343 343 342 342 341 341 339 338 337 336 335 335 334 334 334 334 335 334 332 331 331 331 332 332 330 331 329 327 329 331 329 332 330 329 328 327 328 330 328
341 345 344 343 345 343 343 344 344 346 344 343 342 343 344 344 345 345 345 345 345 345 344 345 344 344 343 344 344 343 343 343 342 339 338 337 337 339 340 341 341 341 342 341 342 342 342 341 341 340 340 339 338 337 336 335 335 334 334 334 334 333 334 334 333 331 330 329 329 332 330 329 330 327 328 329 330 331 331 329 328 327 326 327 329
342 343 345 345 346 345 345 344 344 344 343 343 343 344 344 344 345 346 345 345 345 345 344 344 344 344 344 344 343 343 342 339 337 336 336 335 335 336 337 338 338 338 338 338 339 339 338 338 338 339 339 339 339 337 336 335 334 333 333 333 332 332 334 334 333 332 330 329 330 328 328 330 329 327 327 329 331 332 332 330 328 327 328 329 330
343 343 343 345 346 345 346 346 344 343 343 343 344 344 344 345 345 344 345 344 344 345 344 344 343 344 343 343 342 339 337 336 336 336 336 335 334 335 335 336 335 336 335 335 336 335 335 335 336 336 338 338 338 338 336 335 334 334 333 333 331 332 333 334 333 331 330 329 328 328 328 328 329 328 328 330 330 331 332 331 331 328 329 329 331
343 343 345 346 344 344 344 345 344 343 344 345 345 345 345 345 345 344 344 344 343 343 344 345 344 344 343 340 338 338 337 337 337 335 335 335 335 333 333 334 333 333 334 335 334 333 332 333 333 334 336 335 336 336 336 334 334 333 333 333 332 332 332 332 332 331 330 326 329 329 328 328 328 329 328 331 331 331 332 333 334 333 330 331 332
340 345 346 343 343 343 343 345 345 344 345 346 345 345 345 345 345 345 345 344 344 343 343 344 343 342 340 339 339 339 339 338 338 336 334 335 335 335 334 333 333 333 334 334 334 333 332 332 332 332 332 334 336 335 335 334 334 333 333 333 332 332 332 333 332 330 328 327 327 328 328 328 329 329 327 331 330 330 331 332 335 335 333 331 331
340 343 346 345 344 343 344 345 345 345 345 345 345 345 345 345 345 344 345 344 344 343 343 342 342 341 340 340 340 339 339 338 338 337 335 334 334 334 333 333 333 333 332 332 334 333 332 332 332 331 331 331 333 332 333 334 334 333 332 332 333 333 334 333 330 331 328 327 327 327 329 329 327 328 327 330 331 330 330 330 331 333 335 336 335
340 341 344 346 344 342 343 345 345 343 344 345 345 344 345 345 343 343 343 342 343 343 342 341 341 341 341 340 339 339 338 338 338 338 337 336 335 334 334 333 332 333 333 334 334 333 332 332 332 331 331 331 330 330 331 331 332 331 331 331 330 335 334 332 331 328 329 327 326 326 327 330 327 329 329 331 332 331 331 331 332 334 335 336 337
340 340 341 341 344 342 343 344 344 343 344 344 344 344 343 343 343 342 341 342 343 342 342 341 341 341 340 339 339 339 339 338 337 337 337 337 336 335 335 335 334 333 332 333 332 333 333 332 332 332 332 332 331 330 330 331 331 330 330 329 329 335 332 329 329 328 328 327 325 326 325 326 326 327 329 331 332 332 331 332 332 334 336 338 339
339 341 343 344 348 341 342 342 343 342 344 342 342 342 342 342 342 342 341 342 342 342 341 341 340 340 340 339 339 338 338 338 337 337 337 336 335 335 335 335 334 334 333 333 332 332 332 333 333 333 332 332 332 331 331 331 330 331 331 331 330 334 329 328 329 329 329 328 327 329 326 326 327 328 329 331 332 332 332 333 332 333 334 335 335
329 335 339 344 343 340 338 339 340 340 340 341 342 342 341 341 341 341 341 342 341 341 341 341 340 339 339 339 339 338 338 338 338 337 337 336 336 335 336 334 334 334 335 335 334 333 333 333 334 334 334 333 333 332 332 332 331 331 331 331 330 332 328 330 331 330 330 328 327 326 328 328 326 328 329 330 331 332 331 332 332 332 332 333 335
326 330 332 341 341 342 338 336 337 338 338 339 340 341 342 342 342 342 341 341 341 341 341 340 340 339 339 339 339 339 339 338 338 338 338 337 337 337 337 337 337 336 336 335 335 335 336 335 335 335 334 334 335 334 334 334 334 333 333 331 330 332 329 329 329 330 329 329 328 328 327 329 329 331 332 330 330 330 332 332 333 333 332 332 332
324 327 329 337 342 342 341 339 335 335 336 337 338 339 340 341 341 341 341 341 341 340 340 340 340 340 339 339 339 339 339 339 338 338 337 337 337 337 337 337 337 337 337 337 336 337 336 336 337 336 336 336 336 336 336 335 335 335 335 334 333 332 331 330 330 331 330 330 329 329 328 328 329 332 333 332 331 330 331 332 332 332 333 333 332
321 325 327 329 338 339 341 339 338 336 335 334 335 337 338 338 338 338 338 338 338 338 337 337 336 336 335 335 336 337 337 336 335 335 334 335 336 335 336 337 337 337 337 336 336 336 336 336 336 336 335 336 336 336 336 335 334 334 334 334 334 332 331 329 331 331 330 331 331 330 331 330 329 331 332 332 331 332 332 332 332 333 332 332 332
319 322 324 327 330 334 337 339 339 339 339 336 334 333 334 335 335 335 336 336 336 335 335 335 334 333 333 333 334 334 334 334 333 333 332 332 332 332 332 333 335 336 337 337 337 337 336 336 336 336 336 336 337 337 337 336 335 335 334 334 333 331 330 328 333 333 332 332 331 331 330 330 331 332 333 332 332 332 332 332 332 332 332 332 332
317 318 320 324 327 330 333 336 337 338 337 337 338 335 332 332 332 332 332 333 333 333 333 332 332 332 331 332 333 333 333 332 332 332 331 331 331 330 328 329 332 334 335 336 337 337 337 337 337 336 336 336 336 337 336 336 335 334 333 332 331 330 328 330 334 333 333 332 331 330 330 331 332 334 334 333 331 332 332 333 333 333 333 334 334
313 315 315 319 326 328 331 333 336 336 336 336 336 335 331 329 328 328 328 328 328 328 329 329 329 328 329 330 332 334 334 334 332 333 331 331 327 324 325 327 330 332 333 333 333 333 333 333 333 333 333 333 332 333 334 334 333 332 332 330 330 328 334 334 334 333 332 331 331 331 331 332 334 334 334 334 334 333 333 333 334 334 334 335 335
311 312 313 314 319 324 327 329 332 333 333 331 332 330 328 328 327 326 324 323 323 324 325 326 327 327 327 328 331 332 334 334 334 335 333 332 324 323 324 325 328 330 331 332 332 331 332 332 332 332 332 332 331 332 334 333 332 331 329 328 326 333 333 334 334 333 332 332 331 331 330 333 334 336 336 336 335 335 335 335 335 335 335 336 336
307 308 309 310 314 318 321 323 326 327 328 327 327 327 326 325 325 324 324 322 320 320 321 322 324 328 325 330 332 331 332 333 332 332 334 331 329 322 323 324 326 327 328 330 330 330 331 331 331 331 331 330 330 332 331 330 330 330 328 325 332 332 333 333 333 332 332 331 331 331 331 333 334 335 335 336 336 336 336 335 335 336 335 335 335
304 305 307 308 311 315 318 321 321 323 323 323 324 324 324 323 323 321 321 319 317 316 315 316 318 321 325 329 329 330 331 330 328 328 329 324 327 323 323 325 326 326 326 328 329 328 329 329 329 329 329 329 332 332 331 331 331 328 327 330 330 330 331 331 332 331 331 332 332 332 332 333 335 336 336 333 333 335 335 335 336 336 335 335 335
304 305 306 307 309 311 313 314 314 317 318 319 320 320 321 320 321 319 317 317 316 316 316 316 316 317 320 324 325 325 327 327 326 325 326 328 327 323 322 324 325 326 324 331 331 330 329 331 329 328 332 331 331 330 330 329 329 330 331 330 330 330 330 330 330 331 331 330 331 331 330 331 333 333 335 334 333 333 333 334 335 335 335 335 334
305 306 307 306 307 308 310 311 312 313 315 314 314 315 317 317 316 315 314 314 314 315 315 314 313 314 315 317 319 321 323 323 324 323 323 324 324 325 325 325 326 328 324 330 330 330 330 331 331 330 332 331 331 330 331 330 330 330 330 329 329 329 330 330 329 328 329 330 330 330 329 330 332 332 334 334 335 334 334 334 335 334 334 334 334
304 303 303 304 305 307 308 309 311 312 312 312 312 313 312 312 312 312 311 311 312 311 311 310 310 310 311 312 315 317 318 319 320 320 320 320 320 320 321 321 320 321 322 323 325 327 326 327 328 328 328 329 329 329 329 328 328 328 328 329 329 329 329 329 329 329 329 329 329 328 328 327 328 330 332 333 334 334 334 334 334 334 334 334 334
301 301 302 302 303 305 306 307 308 309 310 310 311 311 310 310 310 309 308 307 309 309 307 307 308 308 309 310 311 312 313 314 315 316 315 316 316 317 317 317 316 316 317 317 318 320 319 319 321 323 324 326 327 324 322 327 327 327 327 327 328 328 328 328 328 329 329 330 328 325 326 326 326 328 329 331 331 332 333 334 334 335 334 334 334
300 299 300 301 302 303 304 306 306 306 307 308 308 308 308 308 308 307 307 305 306 306 305 305 306 305 306 307 308 309 309 310 311 311 312 313 312 313 313 312 311 311 313 313 314 315 315 314 316 318 316 314 316 311 312 316 319 321 322 324 325 326 327 327 328 328 328 329 328 325 323 324 324 325 326 328 330 330 331 332 333 334 334 334 334
298 298 300 300 301 303 303 304 304 305 305 305 305 305 305 305 305 305 304 304 304 303 303 304 303 303 304 305 306 306 306 307 307 308 309 308 308 308 308 307 307 307 308 309 311 311 310 311 313 311 309 309 309 308 309 310 312 313 313 314 318 321 324 325 326 326 326 326 326 324 321 322 321 322 324 325 327 328 329 330 331 332 333 333 333
298 299 300 301 301 302 302 302 303 303 304 304 303 302 302 302 302 302 302 302 301 302 303 302 302 302 302 303 303 304 304 303 304 305 304 304 305 305 304 304 303 304 305 306 307 308 306 307 308 304 304 305 304 305 305 307 308 308 308 311 313 317 321 323 324 324 325 325 324 323 319 320 320 319 319 321 322 324 325 326 328 329 331 333 333
300 299 300 301 302 301 302 301 302 303 303 302 302 301 301 300 300 300 300 300 300 300 300 300 300 300 300 301 302 302 302 302 302 302 302 301 301 301 300 301 300 301 302 303 305 306 305 305 306 302 302 302 302 302 303 303 304 305 306 308 311 316 319 322 322 321 320 320 321 319 318 315 316 316 315 315 315 317 319 322 325 327 328 329 329
298 298 300 301 301 301 301 301 301 301 301 301 301 300 300 299 299 299 298 299 299 298 298 299 299 299 300 300 300 300 300 300 300 300 300 300 299 299 299 299 298 299 300 301 302 303 303 303 304 302 301 301 301 301 302 302 301 302 304 306 310 314 313 311 314 315 315 314 312 308 307 307 312 312 309 307 308 311 314 318 319 319 319 320 321
298 298 299 299 299 300 301 301 300 300 300 299 300 300 299 298 298 298 298 298 298 297 297 297 297 298 298 299 299 299 299 299 298 299 299 298 298 298 297 297 298 298 299 300 300 301 300 300 300 301 299 299 299 299 301 301 300 300 302 304 307 311 307 306 308 307 307 308 308 304 304 304 305 308 307 305 305 307 311 314 311 312 313 314 316
296 297 297 297 298 299 300 300 301 300 299 299 298 298 298 298 298 297 298 297 296 296 296 296 297 297 298 298 298 298 298 298 298 298 298 297 298 297 297 296 297 298 298 298 297 298 298 297 297 298 298 297 296 297 298 298 299 299 301 303 305 309 306 303 304 305 305 303 306 304 302 302 302 304 304 304 305 305 307 309 309 310 311 312 313
295 295 296 296 297 298 298 298 300 300 299 298 298 298 298 297 297 297 296 296 296 295 295 296 296 297 297 297 297 297 297 298 298 297 297 297 296 296 296 296 297 297 296 297 296 296 297 296 295 295 296 295 295 296 296 296 297 297 299 301 303 305 310 302 302 303 304 303 303 304 302 300 301 302 303 301 302 304 304 306 306 307 308 309 308
294 294 295 296 296 297 298 298 298 299 299 298 298 297 296 296 297 296 296 297 295 296 295 295 296 296 296 297 297 296 297 297 297 297 296 296 295 295 295 296 297 296 297 296 296 295 296 296 295 295 293 293 294 294 294 294 296 296 298 299 300 302 310 304 302 300 301 304 302 301 301 300 300 299 301 300 299 301 302 304 304 305 305 305 306
293 293 294 295 295 296 296 297 296 297 298 297 298 297 297 296 296 295 295 296 295 295 295 295 295 295 295 295 296 296 296 296 297 296 296 296 295 295 295 296 296 296 296 295 295 295 295 295 295 295 294 292 293 293 293 293 294 295 296 298 298 300 306 305 302 300 298 300 302 300 300 300 299 301 299 300 299 298 300 303 302 302 302 302 302
293 293 293 294 294 295 296 296 296 296 297 297 297 296 296 296 296 296 296 295 295 295 295 295 294 294 294 294 295 296 296 296 296 297 296 296 295 295 295 295 296 295 295 295 294 295 295 294 293 294 294 293 292 292 291 292 294 295 295 295 297 297 301 305 302 299 296 296 300 300 299 299 298 298 298 299 299 297 298 301 302 300 300 300 301
292 292 292 293 294 294 295 295 295 295 295 296 297 297 296 295 295 295 295 295 295 294 294 294 294 294 294 295 294 294 295 295 295 295 295 294 294 295 295 295 295 294 294 293 293 293 294 293 293 293 294 294 292 292 292 293 294 295 294 294 296 297 298 302 300 297 295 296 298 300 299 298 298 297 297 298 298 297 297 299 300 298 298 299 299
291 291 292 292 291 292 293 294 294 294 295 295 296 296 295 294 294 294 294 293 294 294 294 293 294 293 294 294 294 294 294 294 295 294 294 294 293 293 294 294 294 293 292 292 292 292 292 292 293 292 292 293 294 293 292 292 293 293 293 294 296 296 297 298 298 296 295 295 297 299 296 297 297 296 296 297 297 296 296 297 299 298 297 298 298
291 291 291 291 291 291 293 292 293 294 294 294 294 294 295 294 294 293 291 292 292 293 293 293 293 293 293 293 293 293 294 293 294 294 293 293 293 293 293 293 293 293 292 292 292 292 292 292 292 292 292 291 292 293 292 292 291 291 293 293 294 296 296 296 296 295 294 294 295 297 295 296 296 295 295 296 296 295 295 296 298 298 296 296 296
290 290 290 290 291 291 292 292 293 293 294 293 294 293 294 294 293 292 292 292 292 292 291 292 292 293 293 293 293 293 293 293 293 293 293 293 292 292 292 292 292 292 293 293 292 292 292 292 292 290 292 291 291 292 292 291 289 287 287 289 291 294 295 295 294 294 294 294 295 296 294 295 295 294 294 294 295 294 294 295 297 297 295 295 295
290 289 290 290 290 291 292 292 292 293 293 294 293 293 293 293 293 292 292 291 292 292 292 292 293 292 292 293 293 293 293 292 293 293 293 292 292 292 292 292 292 292 292 291 291 291 291 291 291 290 289 291 291 292 292 291 287 288 289 288 286 287 292 293 294 293 293 293 294 294 293 294 294 294 294 293 294 293 294 294 296 296 294 294 295
290 290 289 289 290 291 291 291 291 292 293 293 293 293 293 293 293 293 292 292 291 291 293 292 293 292 292 292 292 292 292 292 293 292 292 292 292 291 291 291 291 292 291 291 291 290 290 290 290 290 290 287 288 289 291 291 289 287 283 285 285 287 285 287 288 290 292 292 293 292 293 293 293 293 293 292 292 293 293 294 294 294 294 294 294
290 290 290 289 289 290 290 291 291 291 291 292 292 292 293 292 292 292 292 292 293 293 293 292 292 292 292 292 291 292 292 292 292 292 292 291 292 292 291 291 291 291 291 290 290 290 290 291 290 290 289 288 287 288 290 291 291 290 287 284 284 284 284 285 286 286 291 290 291 292 292 292 292 292 291 292 292 292 293 293 293 293 293 293 293
290 290 290 290 290 290 290 291 291 291 291 291 292 292 291 291 292 291 291 291 290 290 289 289 290 290 290 291 292 292 292 292 292 292 292 292 291 291 292 291 291 290 291 290 290 291 291 290 290 290 289 290 288 287 287 290 290 290 290 289 287 283 283 284 284 281 288 290 290 291 291 292 292 291 291 291 291 291 292 292 293 293 293 293 292
290 290 290 290 290 290 291 290 291 291 291 291 292 293 291 291 290 290 290 290 289 290 290 290 290 290 291 291 291 292 293 292 292 292 292 292 292 292 292 292 291 291 291 290 290 290 290 290 291 290 289 289 289 287 287 287 289 290 291 290 289 289 288 285 282 283 281 286 289 289 290 291 291 291 291 291 291 290 291 292 292 292 292 292 292
290 290 290 290 290 290 290 290 290 290 291 291 291 291 291 291 290 290 291 290 289 289 290 290 291 291 290 291 291 291 292 292 292 292 292 292 292 292 292 291 291 291 291 290 290 290 291 291 291 290 290 290 289 287 287 287 286 286 289 288 288 289 289 288 288 285 283 281 283 288 290 290 290 290 290 290 290 290 290 290 291 291 291 291 291
291 291 290 290 290 291 290 290 290 290 290 290 291 290 291 290 290 290 289 290 290 291 290 291 290 291 290 291 291 291 291 292 293 292 292 292 292 291 292 291 291 291 291 290 290 291 290 290 290 289 289 289 289 289 288 287 287 286 286 287 287 287 287 287 287 287 284 282 282 284 285 288 289 289 290 291 290 291 290 290 290 290 290 291 291
291 292 291 291 291 291 290 290 289 290 290 290 290 290 290 290 290 290 289 289 290 290 291 290 290 291 290 290 291 291 291 291 292 293 293 293 292 292 291 291 291 290 290 290 290 290 290 290 290 290 289 289 289 288 288 288 288 287 287 287 285 285 286 286 286 285 285 285 281 282 284 284 283 286 289 288 289 290 290 290 290 290 290 290 290
292 291 291 291 291 291 290 289 289 290 290 290 290 290 290 290 289 290 289 289 289 290 289 289 289 290 289 289 289 290 290 290 291 291 292 292 292 292 291 291 291 291 290 290 289 289 289 289 289 289 289 289 288 288 288 288 288 287 287 287 286 285 284 283 284 284 284 283 282 282 283 284 284 283 286 289 289 289 289 290 289 289 290 290 290
Wind_Speed
3 3 8 6 9 8 7 8 12 11 9 13 12 11 12 12 11 11 10 10 10 9 10 11 11 11 11 11 11 11 10 10 10 11 10 10 10 10 10 9 8 8 8 9 8 7 7 8 9 7 7 8 9 8 9 9 9 9 8 8 8 8 7 6 5 5 5 5 5 7 5 3 6 5 5 2 3 4 3 5 6 3 5 3 5
3 3 3 6 4 5 8 8 6 9 12 13 12 12 12 12 11 10 11 10 9 10 10 11 11 11 11 11 11 11 11 11 12 11 11 11 11 11 10 9 9 9 10 9 8 7 8 7 6 6 6 7 9 9 9 9 8 8 7 7 7 7 7 6 7 5 5 5 6 4 4 3 3 6 5 3 1 2 3 4 5 6 4 5 6
8 5 1 7 3 2 8 8 6 8 12 12 11 12 11 11 10 10 10 9 10 10 10 11 11 11 11 12 12 12 12 12 12 12 11 11 11 10 10 10 10 10 10 9 8 8 7 7 6 6 7 7 10 8 8 8 7 7 7 7 6 7 7 7 7 8 7 5 4 3 3 1 3 4 6 4 5 6 3 2 1 4 6 5 7
5 6 4 8 5 4 4 8 8 12 13 12 11 11 11 11 10 9 9 10 10 10 11 11 12 12 13 13 12 11 12 11 11 11 10 10 10 9 9 9 9 10 10 10 9 8 8 7 8 7 6 8 7 7 6 6 6 6 6 7 7 6 7 7 7 8 7 7 4 4 3 4 3 1 5 8 5 4 2 1 3 3 7 8 7
6 4 5 2 7 6 8 6 10 13 13 11 11 11 10 9 9 10 9 10 10 11 11 12 12 12 12 12 12 12 11 10 10 10 10 9 9 8 8 8 9 9 10 10 10 10 9 9 8 8 7 6 7 6 6 5 6 6 6 6 6 6 6 6 7 7 7 5 5 7 3 3 3 1 5 6 7 1 2 2 2 4 4 6 8
8 5 5 5 6 5 4 10 13 12 12 11 10 10 9 9 9 9 10 10 11 11 12 12 11 11 12 11 11 11 10 10 10 10 10 9 9 9 8 8 8 9 9 9 9 9 9 9 10 9 7 7 6 5 5 5 5 6 6 6 5 6 6 6 7 7 7 8 7 5 4 4 4 2 4 7 8 3 5 5 5 5 6 7 9
6 2 3 4 6 9 9 10 13 13 12 11 10 9 10 10 9 9 9 11 10 11 12 12 11 12 12 12 11 10 10 10 10 10 10 10 9 9 9 8 8 8 8 8 9 9 9 9 9 8 8 7 6 5 5 5 4 5 5 6 7 6 6 6 6 6 6 8 4 4 4 4 4 4 4 8 9 9 6 7 9 6 7 6 7
4 2 3 5 7 9 9 9 12 13 13 11 10 11 11 10 10 10 10 11 11 11 11 12 11 12 11 11 10 10 10 10 10 10 10 10 10 9 9 8 8 9 8 8 8 9 9 9 8 8 8 8 8 5 4 4 4 4 5 6 6 6 5 3 4 6 5 5 4 4 4 5 5 4 3 7 9 8 8 8 9 8 8 6 6
2 3 6 7 8 9 8 8 9 12 12 12 11 11 12 11 11 11 12 12 12 12 11 12 11 11 11 10 10 10 9 9 10 10 10 9 9 9 9 9 9 9 8 8 8 9 8 7 7 7 8 7 8 8 8 6 7 7 7 6 7 7 7 4 4 7 6 4 5 4 5 5 5 4 2 5 8 9 10 9 9 9 9 8 7
3 5 5 6 9 7 6 10 12 12 12 11 11 12 13 12 12 12 12 12 12 12 12 11 11 11 10 10 10 10 10 10 10 10 10 9 9 9 8 8 8 8 7 7 7 7 7 7 6 6 6 7 6 6 6 8 8 9 10 10 10 9 5 5 4 5 5 6 6 6 3 5 7 6 4 7 8 9 9 9 9 10 10 11 12
6 4 4 5 9 8 8 7 8 12 13 14 13 13 13 13 13 12 12 12 11 11 10 11 11 10 9 9 9 9 9 9 9 9 10 9 9 8 8 8 8 7 8 7 6 6 6 6 6 6 6 6 7 7 7 7 7 7 7 8 9 5 3 2 5 5 5 7 7 6 5 4 6 6 5 9 9 10 11 10 10 11 12 13 13
6 4 6 4 7 13 13 13 12 12 14 14 13 13 13 13 13 12 11 11 12 11 11 11 10 10 9 9 8 8 8 8 7 7 7 8 8 8 8 7 8 7 7 7 7 6 7 7 8 7 7 7 7 7 7 7 8 7 7 7 7 2 2 1 6 5 6 6 6 6 7 8 7 6 8 10 10 11 12 12 13 13 14 14 14
7 5 6 7 10 14 14 14 13 14 14 13 13 13 13 13 12 12 12 11 12 11 11 10 10 9 9 8 7 7 7 7 7 7 7 7 7 7 7 8 7 7 6 7 7 6 7 8 8 8 8 7 7 7 7 7 7 6 7 7 6 4 2 4 6 7 6 6 6 6 6 6 7 7 9 11 12 12 13 14 15 15 15 16 15
10 7 5 8 10 15 16 16 16 15 13 13 12 13 13 13 12 11 11 11 10 10 10 10 9 9 8 8 7 7 7 8 8 8 8 7 6 6 7 7 7 8 9 8 8 8 8 8 8 8 8 8 8 7 6 7 6 7 7 7 7 3 3 7 6 6 6 7 7 7 7 7 6 9 10 11 12 13 15 15 15 16 16 16 16
11 11 8 7 11 14 17 17 16 15 15 14 15 15 14 14 14 13 12 12 11 10 10 10 10 9 8 9 8 8 9 9 9 8 8 7 7 7 7 8 8 9 9 9 9 10 10 10 10 9 9 9 9 9 9 9 9 8 9 7 6 6 5 7 7 6 7 6 6 7 8 7 8 11 12 12 13 13 14 15 16 16 16 17 17
11 10 12 9 8 11 11 14 15 13 13 14 14 14 14 14 14 14 13 13 13 13 12 12 13 13 13 13 13 12 12 12 12 12 11 11 11 11 11 11 11 11 12 12 12 12 12 12 12 11 11 12 12 13 13 12 12 12 12 9 6 6 6 6 8 8 7 7 7 7 7 8 9 11 13 13 13 14 14 14 15 15 15 16 17
11 12 16 13 12 11 10 10 10 11 13 14 12 12 12 13 12 12 12 12 12 12 13 13 14 13 13 13 12 12 12 13 13 13 14 14 13 13 13 13 13 12 11 10 11 11 11 10 11 11 11 11 11 11 11 11 11 11 10 10 9 8 7 7 9 9 7 8 7 8 8 8 9 12 13 13 14 14 14 14 15 15 16 16 16
12 13 14 13 12 10 10 9 8 8 8 9 12 13 12 15 15 14 14 13 13 13 13 14 14 13 12 12 11 11 11 12 11 11 12 12 12 12 12 13 13 13 13 13 13 13 13 13 12 13 13 12 11 11 11 9 8 8 7 8 8 8 9 8 10 9 8 7 8 7 8 9 12 13 14 13 13 14 15 15 16 16 16 16 16
13 15 14 15 12 11 8 6 6 6 7 5 5 10 13 14 15 16 15 15 14 14 14 14 13 11 11 10 10 9 9 10 11 10 11 10 12 11 12 11 11 12 14 14 15 15 16 16 16 15 15 14 14 13 13 12 11 9 8 7 8 7 8 8 9 8 8 6 7 8 8 12 14 14 14 14 14 14 15 16 16 16 16 16 17
12 14 12 10 11 12 10 8 6 8 7 8 8 8 10 13 13 14 14 14 13 12 12 11 11 11 9 8 7 7 7 7 8 7 7 8 10 10 10 10 9 9 10 9 9 10 10 11 11 12 12 13 12 12 11 10 10 11 10 11 10 10 7 7 8 7 5 5 6 7 9 13 15 16 17 15 15 15 15 15 16 16 16 17 17
10 14 13 12 12 12 11 9 8 8 9 9 8 8 10 10 10 12 13 14 12 12 11 10 8 8 8 8 6 7 6 7 7 7 6 7 8 10 10 9 8 8 7 8 7 7 8 8 9 9 9 9 9 8 5 6 7 7 7 8 10 7 7 7 8 8 6 4 6 7 9 11 13 16 17 17 16 16 16 16 16 17 17 17 17
9 9 12 12 10 10 11 10 8 11 10 7 7 7 6 8 8 8 7 8 10 10 9 8 8 6 7 6 5 5 6 6 6 7 5 7 7 9 9 11 9 9 10 9 7 7 8 6 6 7 8 9 7 6 6 4 3 4 7 8 6 6 6 7 7 7 8 8 8 8 8 12 12 13 15 16 16 16 16 16 17 17 18 18 18
10 9 8 11 9 8 9 9 9 8 9 8 6 7 6 6 6 6 5 6 7 8 7 7 7 7 6 5 5 5 5 4 5 6 5 4 6 6 8 6 7 8 12 8 5 6 9 7 5 5 6 6 6 6 5 6 7 4 6 6 7 6 7 7 7 7 8 8 7 9 11 14 16 16 15 16 16 16 16 16 17 17 18 18 18
9 8 8 8 11 10 9 9 8 7 7 6 5 5 6 6 4 4 5 6 7 6 7 8 8 8 7 6 6 6 6 4 5 6 5 6 6 6 7 5 5 5 11 7 5 3 9 4 2 5 4 3 5 5 4 5 5 6 5 5 5 6 7 7 6 6 6 7 7 7 11 13 14 16 19 18 18 18 18 19 19 19 19 19 19
8 8 9 11 13 12 10 10 10 9 8 6 7 7 6 6 6 6 7 7 7 7 7 8 9 9 9 7 7 6 5 5 6 6 6 6 6 6 6 7 7 7 10 6 6 7 7 7 6 6 6 6 6 6 6 6 6 6 7 6 6 6 5 5 5 6 6 7 7 6 9 12 14 15 16 18 18 18 18 19 19 19 19 19 20
8 9 11 11 13 12 12 9 9 10 10 8 7 7 8 8 8 8 8 8 8 7 8 8 8 10 9 8 7 6 6 6 7 8 7 7 7 7 7 7 8 8 8 7 7 7 7 7 7 7 7 6 7 7 7 7 7 7 7 7 7 7 7 6 6 6 6 6 6 3 7 11 13 14 14 16 17 18 19 18 18 18 18 18 18
8 9 9 9 11 12 12 11 10 9 11 10 8 8 8 7 7 8 8 8 8 8 8 8 9 10 10 9 8 7 7 7 7 8 8 8 8 7 7 7 8 8 8 7 8 7 7 7 7 7 7 7 7 7 7 6 6 7 6 6 7 7 7 7 7 7 6 6 6 3 4 10 13 13 13 13 14 16 18 19 20 19 18 18 19
9 9 9 9 10 12 11 11 10 10 9 9 9 8 8 8 8 8 8 9 8 8 8 8 8 9 10 9 8 7 7 7 7 8 8 8 8 8 7 7 8 8 8 7 8 7 7 7 8 8 8 8 8 8 8 7 7 7 7 7 7 7 6 6 6 6 6 6 6 6 9 11 13 13 13 13 13 14 14 16 17 18 19 18 18
10 10 8 9 11 10 12 12 11 11 9 9 9 8 8 9 9 8 9 9 8 8 8 7 7 7 9 9 9 7 7 7 8 8 7 8 8 8 7 8 8 8 8 8 8 8 8 8 8 8 8 7 7 7 8 7 7 6 7 7 7 7 6 6 6 6 6 6 5 5 6 8 11 12 13 13 13 14 15 15 15 16 17 18 18
10 9 9 9 10 10 11 12 11 10 9 8 8 8 8 8 9 9 8 8 8 7 7 7 7 7 8 9 9 8 8 8 8 8 8 8 8 9 8 8 8 8 8 8 8 8 8 8 8 8 8 8 8 8 8 8 8 7 7 7 7 7 6 6 7 6 6 4 4 4 4 5 8 12 14 14 14 14 14 15 16 17 16 16 17
9 10 9 8 8 9 10 11 10 10 8 8 8 9 8 9 8 7 7 7 7 6 7 7 7 8 8 9 9 9 8 8 8 8 7 8 8 8 8 8 8 8 8 8 8 8 8 7 8 8 8 8 7 7 7 7 7 8 8 8 7 6 6 6 5 5 5 5 5 6 6 8 9 11 14 15 15 15 15 15 16 17 18 18 18
9 9 8 8 8 10 10 11 10 9 8 8 8 8 8 8 8 7 7 7 7 7 7 7 8 8 9 9 9 8 8 8 9 8 8 8 8 8 8 8 8 8 8 8 8 7 7 7 8 7 8 7 7 7 7 7 7 7 8 8 7 6 6 6 6 6 6 6 6 7 7 8 9 10 13 15 15 16 16 16 17 17 16 17 17
6 8 8 8 9 9 8 10 10 10 10 9 8 7 7 7 7 7 7 6 7 7 7 7 7 8 8 10 9 10 8 8 8 8 7 7 7 8 8 8 8 8 8 9 9 8 7 8 8 7 8 8 8 9 8 7 8 8 8 8 6 6 6 6 6 6 7 6 6 7 7 8 8 9 11 11 13 14 16 17 18 17 17 17 18
6 6 8 9 7 6 6 7 9 9 10 9 8 7 7 6 6 6 7 7 6 6 7 7 7 7 8 10 9 10 9 8 7 8 7 7 7 8 8 8 8 8 8 8 8 8 8 9 10 8 9 9 10 9 9 9 9 9 8 8 6 6 5 6 6 6 6 6 6 6 6 7 7 7 8 10 10 11 14 15 17 17 17 18 19
6 7 8 8 9 8 7 6 8 9 8 9 8 8 7 6 6 6 6 6 6 6 6 6 7 7 7 8 9 9 9 9 8 7 7 7 7 7 8 7 7 7 7 8 7 8 8 8 9 9 8 8 9 9 9 9 9 10 9 8 7 6 4 4 5 6 6 6 6 6 6 6 7 7 7 7 9 10 12 14 16 16 16 17 19
8 7 7 7 8 9 8 8 8 8 8 8 8 7 7 6 6 6 6 6 6 6 6 6 6 6 7 7 9 9 9 9 8 8 7 7 7 7 7 7 8 7 7 7 7 8 8 7 8 8 8 8 9 9 8 9 9 9 9 8 7 7 5 3 5 6 7 6 5 6 6 6 6 7 7 7 8 8 12 12 14 15 15 15 18
8 8 7 7 7 8 8 8 8 8 7 7 7 7 6 6 6 6 7 6 6 6 6 6 6 6 6 6 7 7 8 8 8 7 6 6 6 6 6 7 7 6 6 7 7 7 7 7 7 7 7 7 8 10 9 8 9 8 8 8 8 7 5 4 4 5 7 7 6 6 6 6 7 8 7 7 7 8 10 10 12 14 13 13 16
7 8 8 6 6 6 6 7 6 7 6 5 5 5 5 5 5 5 6 6 6 6 5 6 6 6 6 6 6 6 7 8 8 7 6 6 6 6 6 7 6 6 6 6 7 7 7 8 8 8 8 7 8 9 10 10 8 8 8 9 8 6 6 4 3 4 6 8 6 6 6 6 6 7 7 7 7 8 9 9 11 11 11 12 15
6 7 7 6 5 6 5 6 6 5 4 4 4 4 4 4 5 5 5 6 5 6 5 5 5 5 6 6 6 6 6 8 8 8 6 6 6 6 7 8 7 6 7 7 7 8 8 8 8 8 8 7 7 8 9 10 9 8 8 10 8 7 6 4 4 3 6 8 7 6 6 7 7 7 8 8 7 9 10 9 8 7 8 12 14
6 6 7 7 6 6 5 5 5 4 3 3 2 2 3 3 3 3 5 5 5 4 5 5 5 5 6 6 6 6 7 7 7 7 7 6 6 6 7 7 6 6 6 7 7 7 9 9 9 8 9 8 5 7 9 11 9 9 10 9 8 8 7 6 5 2 5 8 7 5 6 7 6 8 9 8 8 9 10 10 8 8 8 11 13
6 6 6 7 7 6 5 6 4 4 3 3 3 2 2 2 3 4 4 3 3 3 4 4 5 5 6 6 6 6 6 7 7 7 7 6 5 5 6 6 6 6 6 6 7 7 7 7 8 7 8 9 7 8 9 11 10 10 9 9 8 7 7 7 7 3 5 7 7 5 6 7 7 8 8 8 8 9 10 10 8 7 9 9 10
6 5 6 6 5 5 5 4 3 4 4 3 2 3 2 2 2 2 2 2 2 3 3 3 4 4 5 5 5 5 5 5 6 6 6 6 6 6 6 6 6 6 6 6 6 7 7 7 7 7 7 7 7 8 8 11 8 11 13 13 9 7 7 7 7 4 7 8 7 5 7 7 7 8 8 8 8 9 10 10 9 8 9 10 10
3 4 3 3 4 4 4 3 4 3 3 3 2 2 2 2 2 2 1 3 3 3 3 3 3 3 3 4 4 4 5 4 6 6 5 5 6 6 6 5 6 6 6 7 7 7 7 8 8 7 8 7 6 6 8 8 8 10 10 11 11 14 6 5 4 8 11 11 7 6 9 8 8 8 8 8 8 9 10 10 10 9 10 10 10
1 1 2 3 3 3 3 3 3 3 3 4 3 2 3 2 2 2 2 2 2 1 1 1 2 2 2 3 3 4 5 4 5 5 5 5 6 6 6 6 6 6 6 7 7 7 7 7 7 7 7 9 7 7 7 6 6 10 10 9 11 9 12 6 13 12 11 11 7 9 9 8 9 10 8 8 8 9 10 10 10 10 11 11 10
0 1 1 1 1 2 2 2 2 3 3 4 4 3 1 1 1 1 2 2 3 1 1 1 2 2 3 3 4 4 5 5 5 5 5 6 5 5 6 6 6 6 6 7 7 7 7 6 7 7 7 7 9 8 7 6 5 4 6 8 8 7 9 13 16 15 5 6 10 12 9 9 10 10 10 10 9 10 10 10 9 10 11 11 11
2 1 0 0 1 1 2 2 1 2 3 3 3 3 2 2 2 2 1 2 2 2 3 4 4 4 5 5 5 4 5 5 5 5 5 5 6 6 6 6 7 6 6 7 7 7 7 7 7 7 8 7 8 9 9 7 6 6 5 5 5 9 13 14 13 15 12 10 12 8 10 11 10 11 10 10 11 11 10 10 10 10 10 10 11
1 0 1 1 1 1 1 1 1 1 2 2 3 2 1 2 2 2 2 2 3 2 2 3 4 4 5 6 5 5 4 5 5 5 5 5 5 6 6 6 6 7 6 7 8 8 7 7 7 7 8 8 8 9 10 9 8 6 5 7 9 10 11 11 12 14 19 14 7 11 12 11 13 13 11 11 12 13 10 9 11 11 10 11 10
1 1 2 2 2 2 1 2 1 1 0 2 1 2 2 1 2 2 2 2 3 4 4 4 4 5 6 6 6 5 5 5 5 5 5 5 5 6 6 6 7 7 7 7 8 8 7 7 8 9 8 8 8 9 10 9 9 9 8 9 10 10 11 13 13 12 14 18 21 11 11 14 13 13 14 15 13 12 12 12 12 11 10 11 11
3 3 3 3 2 2 3 3 3 3 2 2 3 2 2 2 3 3 3 3 3 4 4 5 5 5 7 7 6 6 6 6 6 6 6 6 5 6 6 7 7 8 7 8 8 9 10 10 10 9 9 9 9 10 10 10 9 10 10 10 10 10 11 11 12 12 12 15 20 18 16 14 15 14 12 11 12 12 13 12 12 13 12 11 10
4 4 5 4 4 4 5 4 5 4 3 4 4 4 3 4 4 4 5 5 4 5 5 6 6 5 7 7 7 6 6 6 6 6 6 6 6 6 7 8 8 9 8 9 10 11 10 10 10 10 10 11 10 10 10 10 10 10 10 11 11 11 11 10 10 11 13 14 18 21 17 17 18 15 13 14 16 14 14 13 13 12 12 12 12
5 6 6 6 5 5 5 6 7 5 6 6 5 6 5 5 5 5 6 7 7 6 7 8 7 7 8 8 8 8 7 7 7 7 8 8 7 7 8 8 8 9 9 10 10 10 10 10 10 11 11 11 10 11 12 12 11 11 11 10 11 11 11 12 13 12 13 15 16 19 19 16 17 21 16 14 15 17 14 13 13 13 12 12 12
Wind_Direction
200 134 88 113 145 140 147 124 118 121 148 114 112 111 110 109 103 99 97 82 83 84 84 85 84 85 86 89 86 85 78 71 69 70 65 65 65 63 61 57 55 62 63 59 54 58 67 62 69 66 75 70 76 69 66 66 65 68 66 67 67 64 60 63 66 81 92 80 56 34 12 41 2 16 321 107 53 71 65 42 4 298 301 69 21
141 33 74 127 104 144 132 122 125 147 126 108 112 115 113 104 105 104 89 89 85 83 82 81 81 82 84 84 84 82 80 77 76 71 68 68 66 65 63 67 66 60 61 62 63 58 53 56 50 56 56 64 67 64 62 62 65 64 58 57 56 58 56 49 44 46 68 79 66 49 49 27 359 347 338 344 307 134 117 49 14 319 261 24 315
85 114 314 112 92 286 110 119 148 121 106 108 116 114 109 111 109 96 91 94 93 88 85 84 86 90 91 89 89 88 85 81 79 73 70 68 67 64 66 63 65 69 69 65 64 58 60 59 60 61 69 70 65 59 59 61 62 61 60 53 49 49 48 47 43 34 30 45 60 55 57 257 349 331 327 302 286 152 136 115 8 319 286 319 303
94 124 125 86 142 140 150 152 156 124 107 111 116 119 119 110 105 93 96 96 93 90 91 92 90 88 90 90 87 87 85 84 77 73 63 59 59 60 62 61 62 64 64 66 64 66 64 63 62 60 61 63 68 61 60 64 63 59 54 50 47 40 41 36 37 36 28 18 9 304 255 277 227 90 315 298 311 110 170 247 314 298 297 288 304
113 110 94 150 149 196 172 185 137 108 111 118 118 111 107 106 99 101 101 97 95 93 93 94 94 92 90 87 84 82 80 75 69 62 59 56 54 54 52 53 51 54 55 56 60 58 54 51 45 43 45 52 61 59 56 60 54 49 43 41 37 31 28 31 34 27 16 1 355 278 265 272 284 35 295 292 298 328 179 267 268 289 277 272 264
144 136 132 179 132 143 175 127 109 107 111 115 111 108 105 96 99 104 101 102 100 101 101 102 98 93 90 86 83 78 74 66 61 58 57 53 53 52 53 52 49 46 45 42 42 42 35 30 30 30 39 42 48 47 58 47 46 42 36 35 18 17 24 20 27 22 5 325 257 268 283 273 286 309 310 293 288 243 205 221 249 256 255 250 259
102 114 176 153 129 109 108 111 111 114 114 112 109 104 92 90 89 91 95 98 102 103 103 100 96 91 87 86 79 74 67 62 59 59 57 56 53 51 49 46 43 40 38 38 42 34 27 22 16 22 20 28 23 34 28 37 33 32 20 5 359 3 10 24 15 7 356 300 294 309 292 295 300 297 293 286 286 279 249 254 258 274 251 265 268
111 163 207 107 96 103 101 106 116 119 120 118 109 101 97 94 90 93 98 97 98 102 102 97 91 87 81 75 73 68 62 61 58 57 57 56 56 54 47 42 38 33 32 39 37 31 27 26 18 13 9 6 5 4 8 11 18 360 2 353 358 355 1 12 22 354 299 293 303 299 304 303 293 290 308 294 288 285 279 272 278 290 277 279 295
113 115 104 107 104 97 101 111 111 113 114 112 109 93 85 82 87 94 94 95 97 96 90 88 83 77 71 71 68 60 57 55 53 51 52 51 52 51 48 42 36 30 23 30 25 20 22 26 24 13 3 2 4 2 350 339 327 328 331 340 340 338 329 32 26 327 281 322 303 296 295 295 300 294 273 303 290 287 291 288 275 277 282 265 255
16 55 69 103 109 88 95 100 100 105 104 98 90 85 79 78 81 86 93 94 89 86 89 88 81 73 70 67 62 54 51 47 44 43 42 41 42 42 42 42 39 32 30 19 22 21 14 15 14 8 1 356 349 347 348 343 339 342 336 334 335 350 38 43 340 279 317 316 313 296 297 346 293 288 314 310 296 290 287 293 298 302 294 293 284
73 48 50 83 98 79 60 71 99 101 91 89 84 80 80 83 88 89 88 90 91 90 87 81 76 74 71 68 60 54 49 45 41 36 34 33 31 28 30 29 26 25 24 23 23 14 5 1 353 356 357 352 347 343 336 330 327 332 340 342 339 52 51 17 286 328 323 316 312 306 299 201 274 274 316 309 297 293 296 297 291 290 291 282 276
78 70 65 53 64 73 65 69 71 84 89 86 82 79 79 82 84 84 88 87 84 81 79 75 71 67 64 61 56 49 45 41 38 38 30 23 20 19 18 16 15 15 14 3 3 359 351 348 346 346 342 343 345 346 345 339 334 336 338 339 342 108 86 31 307 331 323 320 318 316 302 298 292 298 317 300 295 290 290 289 288 283 282 281 272
70 53 80 103 85 72 70 70 75 74 74 75 79 79 78 75 75 75 77 77 76 74 70 68 64 61 58 56 54 52 47 42 36 29 23 19 16 13 8 4 1 358 348 352 346 339 335 335 334 335 334 332 332 332 336 337 336 327 327 332 337 127 180 242 305 323 332 328 320 307 311 296 289 294 306 301 292 288 286 288 290 292 292 293 288
12 19 41 87 79 72 68 65 63 67 63 64 73 73 70 68 69 72 70 66 67 67 65 62 60 59 56 56 54 48 44 42 36 31 24 15 13 4 356 352 348 343 343 337 334 332 329 325 322 325 320 327 325 320 317 316 314 310 314 313 307 188 201 229 230 309 321 324 320 317 306 302 295 312 302 295 292 287 282 283 285 289 291 291 290
15 19 14 64 82 81 69 67 67 66 70 63 57 53 54 53 51 51 55 56 58 59 58 55 56 52 47 40 37 37 34 32 30 24 16 13 5 355 348 337 333 330 330 327 327 330 326 319 319 315 315 308 306 306 301 306 307 304 301 300 288 283 211 301 315 313 309 310 310 310 311 302 302 294 296 292 287 285 283 282 283 284 286 287 286
26 15 33 43 71 82 79 73 70 69 70 65 57 53 48 48 45 46 46 44 41 40 40 38 33 30 28 21 19 20 22 19 19 12 7 2 360 357 353 344 338 332 330 334 330 328 322 322 318 319 320 321 316 315 316 314 312 314 321 319 286 274 261 274 305 306 302 306 312 309 304 301 301 292 298 297 289 283 280 279 279 280 281 280 279
20 30 40 34 58 66 71 67 64 71 65 60 57 58 55 51 48 46 47 44 42 38 35 35 31 27 25 24 22 23 21 20 14 10 7 3 1 355 352 351 345 343 339 338 332 331 329 328 324 321 322 317 314 311 305 308 314 312 315 311 297 277 271 256 299 298 300 305 311 305 305 303 305 303 297 297 292 286 281 278 278 278 277 277 277
24 34 36 28 29 31 43 45 51 46 55 58 52 42 50 53 49 48 49 51 49 48 48 45 39 36 33 34 34 31 28 22 16 15 9 8 4 356 356 352 347 346 341 340 341 341 338 336 336 333 332 327 319 316 315 303 292 293 288 290 287 280 273 263 283 289 297 308 298 299 297 299 302 299 299 296 292 288 285 282 283 283 283 282 282
29 32 35 34 25 32 31 45 44 54 64 61 62 57 55 59 57 52 52 50 49 50 52 51 45 39 36 36 35 35 29 26 19 17 11 7 5 354 355 354 354 356 353 350 348 348 347 347 347 348 349 348 346 338 330 321 314 309 303 290 288 274 267 266 282 292 302 305 307 304 299 303 300 295 297 296 292 290 290 290 287 285 285 285 285
29 29 28 30 30 30 30 31 52 58 53 57 55 57 59 60 52 56 54 50 46 46 50 51 47 38 34 28 31 25 28 30 22 17 17 22 18 6 358 355 357 359 360 355 351 355 357 358 358 358 359 357 348 336 329 330 331 330 318 316 305 291 264 282 290 286 282 294 298 293 295 299 300 300 298 295 293 290 287 288 288 289 289 288 286
27 30 28 25 29 29 28 36 23 35 45 46 46 46 36 44 54 48 51 49 44 45 40 39 38 38 28 25 26 24 20 15 18 12 23 28 36 8 8 1 353 357 350 341 343 350 352 356 357 353 355 352 348 328 347 350 331 321 305 299 287 273 297 307 305 293 284 271 268 281 276 280 293 302 300 296 290 289 290 289 290 289 289 287 286
27 24 22 18 21 26 24 32 30 37 50 52 55 48 34 40 47 43 38 45 40 37 36 34 25 19 13 20 31 32 25 21 17 8 15 14 31 15 11 8 356 3 350 332 340 341 340 347 351 349 342 342 309 340 352 342 302 304 298 277 280 315 313 314 307 296 291 288 284 288 256 260 268 282 295 298 300 297 295 295 292 293 291 289 289
26 22 18 17 16 25 28 30 36 31 47 51 53 55 47 47 41 47 53 49 47 42 32 30 25 18 11 14 28 27 10 31 24 11 358 10 32 17 10 3 354 6 358 320 339 340 337 325 338 342 326 303 315 347 348 340 339 322 289 315 333 318 307 296 294 298 301 308 306 316 303 298 299 293 291 302 306 306 303 299 299 297 296 295 291
25 21 17 18 20 20 23 30 29 31 46 46 44 47 44 38 31 20 27 35 37 36 37 29 24 15 8 15 18 10 360 7 6 11 1 14 17 17 6 356 351 11 351 314 328 6 314 282 308 306 272 324 331 326 328 322 319 324 323 318 326 329 318 309 296 291 294 300 299 300 283 287 294 300 302 302 302 305 306 304 303 302 301 298 295
21 23 22 21 19 19 14 19 21 22 28 32 31 27 20 27 27 23 26 31 27 27 29 28 24 13 13 9 5 5 358 3 12 13 15 15 11 9 7 7 7 5 354 0 348 348 337 340 332 324 329 322 323 322 318 315 317 319 316 313 311 316 316 314 309 301 296 291 290 275 297 305 305 307 308 309 310 309 306 307 304 302 300 298 297
28 31 22 19 17 17 18 15 21 26 26 28 30 29 27 27 24 20 25 29 27 26 26 24 20 16 10 4 359 6 5 13 15 16 14 14 13 11 9 9 7 7 1 1 357 356 353 355 348 349 344 335 330 327 326 318 314 316 316 314 309 310 314 312 311 308 308 308 315 28 314 306 308 313 317 318 317 315 314 311 308 307 303 301 298
29 34 25 21 14 16 16 17 23 21 26 26 31 35 33 31 31 29 28 25 25 25 24 19 18 16 9 9 5 9 11 14 16 18 16 14 14 10 9 10 8 8 3 3 358 359 360 360 1 359 354 351 354 353 339 330 328 327 321 316 311 308 306 309 309 310 312 313 320 360 317 323 319 318 321 321 324 323 324 323 320 318 313 308 303
36 27 21 20 18 20 21 24 27 25 24 24 31 35 34 32 32 34 35 26 28 29 25 20 17 18 15 10 6 12 12 15 16 18 18 15 15 9 11 12 12 10 5 8 1 1 3 3 1 0 1 0 357 356 345 343 339 339 338 333 328 317 315 314 311 315 315 313 320 37 11 339 333 334 333 332 329 329 329 330 329 325 323 320 318
32 22 17 21 22 23 25 30 30 30 29 27 32 32 31 32 32 34 36 27 33 33 27 23 23 20 19 14 9 12 14 18 17 17 14 16 14 12 13 15 13 11 6 8 5 4 6 5 2 3 360 356 352 356 344 344 342 346 344 339 331 326 324 320 323 324 322 323 330 19 12 344 342 348 350 350 346 343 341 339 336 334 329 327 324
33 28 25 28 23 24 29 33 30 29 29 31 35 36 33 33 32 33 32 29 33 29 27 31 28 23 21 16 17 17 21 17 17 14 17 15 15 14 15 14 15 12 10 8 5 6 8 7 6 5 360 356 355 353 344 343 343 344 347 339 337 334 334 333 333 340 339 338 341 1 43 356 353 358 2 2 1 357 353 349 345 340 336 333 332
33 32 29 23 21 29 32 33 35 32 37 40 38 39 36 36 34 32 31 30 26 28 32 34 33 31 23 19 22 24 26 27 21 20 22 21 21 21 21 16 17 15 12 8 7 8 9 10 6 3 359 355 353 351 348 345 345 345 345 342 341 340 346 349 357 356 356 0 356 357 14 18 19 9 6 6 1 0 359 358 355 352 350 350 351
36 33 27 20 25 27 34 33 34 32 36 44 43 42 39 39 35 36 32 30 29 33 34 35 36 34 28 27 27 29 30 34 30 28 28 28 26 25 23 21 19 14 13 11 8 9 10 5 6 2 356 351 350 351 347 344 345 346 343 346 344 356 1 358 360 8 8 5 11 8 7 359 8 15 7 7 2 2 1 1 0 359 357 353 349
39 32 28 26 27 27 29 32 35 36 38 41 45 46 44 42 42 39 36 31 36 36 38 36 35 36 32 29 30 30 32 32 32 31 30 34 32 27 27 25 18 12 10 6 10 9 12 9 4 359 2 357 356 356 350 351 350 348 344 349 344 354 13 6 10 12 8 6 12 10 5 1 355 3 3 4 360 1 0 2 2 0 0 357 352
33 31 28 32 29 24 27 33 31 40 40 42 43 46 45 46 45 44 40 38 39 42 40 38 38 37 37 32 31 31 29 27 25 28 27 33 30 30 24 21 14 10 12 10 14 11 11 11 5 358 3 1 0 356 351 352 349 346 346 344 345 343 6 10 11 11 3 5 0 7 1 1 356 353 352 354 355 356 355 356 356 355 356 356 352
34 32 30 31 37 34 26 37 33 41 41 44 46 48 46 48 46 46 44 41 46 47 42 40 39 38 36 35 31 29 28 29 24 25 29 29 31 30 26 20 8 11 15 15 12 15 12 12 7 1 358 1 360 356 354 349 344 343 342 339 336 334 329 360 2 6 2 356 353 355 356 358 355 351 346 347 346 351 348 347 349 349 349 352 350
34 31 33 32 40 36 32 42 36 43 48 47 46 50 54 55 55 49 50 46 49 45 43 39 38 34 37 36 31 32 29 27 30 27 35 31 32 31 26 15 11 15 17 17 18 16 11 7 12 5 357 358 355 354 352 345 341 336 338 334 331 326 309 330 348 2 1 346 346 345 345 350 349 348 336 342 341 341 340 335 340 341 341 344 344
34 33 31 34 40 38 37 36 37 38 43 47 51 52 55 56 57 55 55 51 48 49 46 42 40 37 36 34 29 31 29 29 28 31 34 32 31 30 21 12 12 15 16 17 20 14 9 2 5 6 360 350 352 349 347 341 334 329 328 328 324 319 304 317 332 349 1 344 328 337 335 338 340 337 337 336 334 336 334 322 328 332 333 338 339
38 38 33 32 36 37 40 36 36 38 42 46 48 54 60 63 62 60 56 55 49 50 49 45 43 42 38 35 26 28 29 24 23 20 30 28 28 24 19 10 9 12 16 14 18 13 9 5 360 3 357 352 354 352 345 336 326 320 319 321 317 312 301 285 305 331 356 342 319 326 328 328 334 336 333 327 325 333 329 319 316 322 325 334 334
39 38 39 35 38 38 39 40 36 37 47 54 55 67 69 70 67 63 59 56 57 53 48 51 47 45 38 31 28 28 25 23 20 18 18 17 20 18 15 8 7 10 13 14 12 13 8 4 359 355 356 351 350 350 342 330 319 314 311 310 302 297 299 281 290 320 354 338 313 309 320 324 325 332 330 324 322 328 325 317 315 320 324 328 329
39 40 42 41 40 38 38 43 33 25 36 37 42 56 60 56 65 74 68 60 58 58 53 51 48 45 33 31 30 30 23 20 17 17 17 13 10 14 9 8 7 8 10 13 8 7 359 355 354 347 348 346 351 352 346 334 320 318 314 302 287 283 278 270 267 293 345 336 312 302 320 316 317 325 324 320 321 323 321 313 307 312 320 323 321
38 37 42 43 41 40 39 40 25 18 22 32 34 30 45 80 72 62 69 67 62 64 60 52 48 41 30 30 27 27 21 18 18 15 15 9 7 7 4 7 359 4 3 5 0 354 354 350 345 340 344 344 346 355 349 336 326 327 325 312 303 282 268 263 257 260 329 328 300 292 316 309 311 320 320 317 315 317 320 314 302 309 319 320 318
34 33 40 42 40 43 46 39 30 32 29 27 28 39 33 27 41 65 63 56 55 48 52 47 41 40 32 26 25 22 16 18 13 8 10 6 3 359 0 359 356 353 347 341 345 345 347 350 346 341 346 340 333 345 349 342 347 343 331 326 314 304 280 261 253 266 317 316 289 288 310 297 302 314 315 313 311 313 316 312 299 305 316 312 315
40 38 33 49 50 48 42 38 34 27 33 17 20 39 35 22 9 44 46 79 57 45 55 44 33 29 29 23 17 12 5 8 7 1 359 358 357 352 348 347 348 344 337 337 341 341 346 344 347 343 335 333 325 334 346 357 334 331 316 314 327 325 320 274 231 309 314 300 273 288 309 290 297 307 308 303 306 311 313 306 298 304 311 308 308
37 68 42 49 47 49 38 32 39 37 35 32 18 23 26 20 19 25 32 23 65 94 137 78 24 8 6 11 9 357 358 350 355 352 352 346 347 344 338 339 336 337 329 325 327 328 336 335 338 333 329 323 330 324 332 332 342 337 337 333 311 307 309 315 322 307 295 279 260 291 298 286 298 304 302 298 301 306 304 298 296 301 305 303 302
172 74 40 46 63 47 37 25 42 36 41 26 19 6 346 226 176 187 204 212 215 239 245 302 350 343 328 348 346 344 342 340 336 341 336 334 330 331 329 324 322 321 318 315 316 319 316 318 322 319 322 319 316 317 313 315 313 325 314 324 323 311 309 312 319 303 295 294 285 284 271 270 286 298 300 295 300 299 297 293 291 295 297 296 298
201 172 229 18 14 44 21 21 50 38 28 28 6 4 20 5 340 309 293 316 324 353 346 338 333 332 330 323 314 321 322 319 317 314 314 315 312 311 310 311 311 312 311 310 305 305 307 310 315 311 306 308 305 305 305 308 303 292 267 266 275 295 310 312 316 310 305 285 289 287 285 281 275 281 283 283 292 295 291 290 289 291 289 289 293
174 251 230 264 269 305 327 334 352 36 22 357 354 324 349 22 6 8 355 337 319 322 320 303 299 305 306 303 302 299 291 297 297 294 295 294 295 296 296 297 299 298 301 298 299 300 300 302 303 299 300 301 296 295 301 307 304 284 268 265 267 265 274 293 302 306 307 304 271 296 295 288 288 285 282 278 281 281 275 278 286 285 285 288 287
289 260 265 240 264 287 302 306 299 298 258 305 314 328 312 336 326 311 282 285 296 300 298 297 293 287 289 291 292 291 286 275 280 282 280 282 287 288 290 292 293 295 295 293 294 295 298 294 291 290 287 285 289 290 296 298 298 298 292 285 281 275 271 268 265 276 287 299 304 292 281 293 293 288 287 286 282 278 278 279 276 274 278 280 281
255 255 251 263 254 259 265 255 263 254 252 259 282 283 299 297 284 287 285 273 274 277 285 275 278 278 281 284 282 285 282 274 268 275 275 274 276 283 286 288 292 293 292 291 290 291 291 291 289 290 290 290 288 287 286 287 290 291 298 290 286 284 282 275 275 270 273 289 290 295 300 299 292 285 285 284 287 282 280 279 278 277 274 269 265
256 252 258 256 247 242 249 256 255 256 254 253 253 259 251 261 265 264 273 279 275 277 269 276 275 273 278 283 283 285 287 289 284 271 271 269 271 278 281 283 287 289 289 288 287 283 283 282 282 282 284 283 282 281 278 283 283 284 282 287 288 288 284 282 278 283 280 273 285 295 297 300 299 294 292 290 287 280 279 278 276 275 274 274 271
246 246 250 246 242 241 250 256 257 253 250 249 245 256 250 248 262 262 263 271 273 273 280 279 278 280 284 286 286 286 284 283 282 281 276 277 273 274 278 282 284 284 282 283 283 287 288 288 287 283 277 274 278 279 279 275 275 276 275 275 277 279 283 286 287 286 284 287 291 288 291 292 289 291 287 284 284 283 276 273 273 271 270 268 267